Location: Cruquius
(52.3348°N, 4.6319°E)
Time: 12:53:45
(UTC+00:00)

ERBS - Pass Details

Date: 12 May 2021
Orbit: 399 x 417 km, 57.0° (Epoch: 19 June)

Event Time Altitude Azimuth Distance (km) Brightness Sun altitude
Rises 20:46:00 0° 293° (WNW) 2,348 7.3 -10.1°
Reaches altitude 10° 20:48:08 10° 300° (WNW) 1,489 6.3 -10.3°
Maximum altitude 20:51:20 43° 14° (NNE) 593 3.3 -10.6°
Drops below altitude 10° 20:54:33 10° 88° (E) 1,495 4.7 -10.9°
Enters shadow 20:55:04 - 91° (E) 1,695 4.9 -11.0°
